This demonstration page uses our WeatherBlox Daily Observations layout. Learn more.

Left ArrowRight Arrow

31.31129, -92.44514

Hourly Observations for August 12, 2022

Temp ( °F °C ) Dew Point ( °F °C ) Humidity (%) Winds ( mph kmh ) Pressure ( in mb ) Visibility ( mi km ) Precip ( " mm )
12:53 am 00:53 Clear 78 25.6 74 23.3 87 87 Calm 29.99 1016 10 16 0.00 0.00
1:53 am 01:53 Clear 77 25 74 23.3 90 90 Calm 29.98 1015 9 14 0.00 0.00
2:53 am 02:53 Clear 77 25 73 22.8 88 88 S 3 6 29.98 1015 10 16 0.00 0.00
3:53 am 03:53 Clear 76 24.4 73 22.8 91 91 NE 3 6 29.98 1015 10 16 0.00 0.00
4:53 am 04:53 Mostly Cloudy 76 24.4 74 23.3 94 94 ENE 6 9 29.98 1015 7 11 0.00 0.00
5:48 am 05:48 Partly Cloudy with Mist and Fog 75 24 73 23 94 94 ENE 3 6 29.98 1015 4 6 0.00 0.00
5:58 am 05:58 Mostly Clear with Mist and Fog 76 24.4 73 22.8 91 91 ENE 3 6 29.98 1015 1 2 0.00 0.00
6:07 am 06:07 Mostly Clear with Mist and Fog 76 24.4 74 23.3 94 94 Calm 29.98 1015 1 1 0.00 0.00
6:49 am 06:49 Partly Cloudy with Fog 75 24 73 23 94 94 NE 5 7 29.99 1016 0 0 0.00 0.00
6:53 am 06:53 Partly Cloudy with Fog 75 23.9 73 22.8 94 94 NE 3 6 30.00 1016 0 0 0.00 0.00
7:53 am 07:53 Partly Cloudy with Fog 76 24.4 74 23.3 94 94 ENE 6 9 30.00 1016 0 0 0.00 0.00
8:00 am 08:00 Partly Cloudy with Mist and Fog 76 24.4 74 23.3 94 94 ENE 7 11 29.99 1016 1 2 0.00 0.00
8:11 am 08:11 Partly Cloudy with Fog 76 24.4 74 23.3 94 94 ENE 5 7 29.99 1016 1 1 0.00 0.00
8:29 am 08:29 Cloudy with Mist and Fog 76 24.4 74 23.3 94 94 E 6 9 30.00 1016 2 3 0.00 0.00
8:37 am 08:37 Cloudy with Mist and Fog 77 25 74 23.3 90 90 E 3 6 30.00 1016 6 10 0.00 0.00
8:53 am 08:53 Cloudy 78 25.6 74 23.3 87 87 E 6 9 30.01 1016 8 13 0.00 0.00
9:23 am 09:23 Mostly Cloudy 80 26.7 74 23.3 82 82 ENE 6 9 30.01 1016 9 14 0.00 0.00
9:53 am 09:53 Mostly Cloudy 83 28.3 74 23.3 74 74 NNE 5 7 30.01 1016 10 16 0.00 0.00
10:18 am 10:18 Mostly Cloudy 84 28.9 73 22.8 70 70 VRB 7 11 30.00 1016 10 16 0.00 0.00
10:36 am 10:36 Partly Cloudy 84 28.9 73 22.8 70 70 E 8 13 30.00 1016 10 16 0.00 0.00
10:53 am 10:53 Partly Cloudy 85 29.4 72 22.2 65 65 E 8 13 30.02 1017 10 16 0.00 0.00
11:53 am 11:53 Mostly Sunny 89 31.7 72 22.2 57 57 undefined N/A 30.01 1016 10 16 0.00 0.00
12:53 pm 12:53 Partly Cloudy 90 32.2 72 22.2 56 56 NE 8 13 30.00 1016 10 16 0.00 0.00
1:53 pm 13:53 Mostly Sunny 92 33.3 71 21.7 51 51 E 7 11 29.99 1016 10 16 0.00 0.00
2:53 pm 14:53 Partly Cloudy 92 33.3 72 22.2 52 52 ENE 7 11 29.97 1015 10 16 0.00 0.00
3:53 pm 15:53 Mostly Cloudy 91 32.8 71 21.7 52 52 ESE 8 13 29.95 1014 10 16 0.00 0.00
4:53 pm 16:53 Sunny 92 33.3 71 21.7 51 51 E 8 13 29.94 1014 10 16 0.00 0.00
5:53 pm 17:53 Sunny 92 33.3 70 21.1 49 49 E 9 15 29.93 1014 10 16 0.00 0.00
6:53 pm 18:53 Sunny 91 32.8 71 21.7 52 52 E 8 13 29.93 1014 10 16 0.00 0.00
7:53 pm 19:53 Sunny 88 31.1 71 21.7 57 57 ENE 3 6 29.94 1014 10 16 0.00 0.00
8:53 pm 20:53 Mostly Clear 84 28.9 74 23.3 72 72 NE 5 7 29.96 1015 10 16 0.00 0.00
9:53 pm 21:53 Partly Cloudy 81 27.2 74 23.3 79 79 S 3 6 29.98 1015 10 16 0.00 0.00
10:53 pm 22:53 Clear 80 26.7 74 23.3 82 82 Calm 29.98 1015 10 16 0.00 0.00
11:53 pm 23:53 Mostly Cloudy 81 27.2 73 22.8 77 77 ENE 3 6 29.98 1015 10 16 0.00 0.00

Powered by AerisWeather